Weather History for Thedford, NE

Change the Weather History Date:

Tuesday, August 27, 2013

  Actual Average (KLBF) Record (KLBF)
Temperature  
Mean Temperature 82 °F 70 °F  
Max Temperature 100 °F 85 °F 104 °F (1990)
Min Temperature 64 °F 55 °F 40 °F (1992)
Degree Days  
Heating Degree Days 0 1  
Month to date heating degree days 6  
Since 1 June heating degree days 62  
Since 1 July heating degree days 11  
Cooling Degree Days 16 6  
Month to date cooling degree days 213  
Year to date cooling degree days 672  
Since 1 June cooling degree days 644  
Growing Degree Days 32 (Base 50)    
Moisture  
Dew Point 57 °F    
Average Humidity 43    
Maximum Humidity 78    
Minimum Humidity 19    
Precipitation  
Precipitation 0.00 in 0.06 in 1.33 in (2014)
Month to date precipitation 2.09  
Year to date precipitation 16.02  
Snow  
Snow 0.00 in 0.00 in 0.00 in (2002)
Month to date snowfall 0.0  
Since 1 June snowfall 0.0  
Since 1 July snowfall 0.0  
Snow Depth -    
Sea Level Pressure  
Sea Level Pressure 29.97 in    
Wind  
Wind Speed 7 mph (South)    
Max Wind Speed 13 mph    
Max Gust Speed 20 mph    
Visibility 10 miles    
Events      
T = Trace of Precipitation, MM = Missing Value Source: NWS Daily Summary

Daily Weather History Graph

Daily Weather History Graph

Search for Another Location

Airport:

Trip Planner

Search our weather history database for the weather conditions in past years. The results will help you decide how hot, cold, wet, or windy it might be!

Date:

Astronomy

Aug. 27, 2013 Rise Set
Actual Time 7:03 AM CDT 8:23 PM CDT
Civil Twilight 6:33 AM CDT 8:52 PM CDT
Nautical Twilight 5:59 AM CDT 9:27 PM CDT
Astronomical Twilight 5:22 AM CDT 10:03 PM CDT
Moon No Moon Rise 2:09 PM CDT (8/27)
Length of Visible Light 14h 18m
Length of Day
13h 20m
Waning Gibbous, 57% of the Moon is Illuminated
Aug 27
Waning Gibbous
Aug 28
Last Quarter
Sep 5
New
Sep 12
First Quarter
Sep 19
Full

Hourly Weather History & Observations

Time (CDT) Temp. Heat Index Dew Point Humidity Pressure Visibility Wind Dir Wind Speed Gust Speed Precip Events Conditions
12:15 AM 79.7 °F - 56.5 °F 45% 29.98 in 10.0 mi South 9.2 mph - N/A   Clear
12:35 AM 79.7 °F - 55.8 °F 44% 29.98 in 10.0 mi South 9.2 mph - N/A   Clear
12:55 AM 78.6 °F - 55.9 °F 46% 29.99 in 10.0 mi South 9.2 mph - N/A   Clear
1:15 AM 78.1 °F - 55.9 °F 46% 29.99 in 10.0 mi SSW 9.2 mph - N/A   Clear
1:35 AM 79.0 °F - 55.4 °F 44% 29.99 in 10.0 mi SSW 8.1 mph - N/A   Clear
1:55 AM 78.8 °F - 55.4 °F 44% 29.99 in 10.0 mi SSW 9.2 mph - N/A   Clear
2:15 AM 78.1 °F - 55.6 °F 46% 29.99 in 10.0 mi SSW 8.1 mph - N/A   Clear
2:35 AM 77.0 °F - 55.9 °F 48% 29.98 in 10.0 mi South 9.2 mph - N/A   Clear
2:55 AM 76.3 °F - 56.3 °F 50% 29.98 in 10.0 mi South 9.2 mph - N/A   Clear
3:15 AM 75.6 °F - 56.5 °F 51% 29.98 in 10.0 mi South 10.4 mph - N/A   Clear
3:35 AM 75.4 °F - 56.5 °F 52% 29.97 in 10.0 mi South 10.4 mph - N/A   Clear
3:55 AM 75.2 °F - 56.7 °F 52% 29.97 in 10.0 mi South 11.5 mph - N/A   Clear
4:15 AM 75.2 °F - 56.8 °F 53% 29.97 in 10.0 mi South 12.7 mph - N/A   Clear
4:35 AM 73.8 °F - 57.2 °F 56% 29.97 in 10.0 mi South 10.4 mph - N/A   Clear
4:55 AM 73.4 °F - 57.2 °F 57% 29.97 in 10.0 mi SSW 4.6 mph - N/A   Clear
5:15 AM 70.9 °F - 57.4 °F 62% 29.97 in 10.0 mi SW 4.6 mph - N/A   Clear
5:35 AM 71.1 °F - 57.4 °F 62% 29.98 in 10.0 mi SSW 5.8 mph - N/A   Clear
5:55 AM 71.4 °F - 57.4 °F 61% 29.98 in 10.0 mi SW 4.6 mph - N/A   Clear
6:15 AM 68.0 °F - 58.1 °F 71% 29.98 in 10.0 mi Calm Calm - N/A   Clear
6:35 AM 66.6 °F - 57.9 °F 74% 29.98 in 10.0 mi Calm Calm - N/A   Clear
6:55 AM 67.8 °F - 57.7 °F 70% 29.98 in 10.0 mi Calm Calm - N/A   Clear
7:15 AM 66.2 °F - 57.6 °F 74% 29.98 in 10.0 mi Calm Calm - N/A   Clear
7:35 AM 64.6 °F - 57.7 °F 78% 29.99 in 10.0 mi Calm Calm - N/A   Clear
7:55 AM 66.9 °F - 59.0 °F 76% 29.99 in 10.0 mi Calm Calm - N/A   Clear
8:15 AM 71.2 °F - 58.8 °F 65% 30.00 in 10.0 mi WSW 3.5 mph - N/A   Clear
8:35 AM 73.6 °F - 58.6 °F 59% 29.99 in 10.0 mi WSW 6.9 mph - N/A   Clear
8:55 AM 75.7 °F - 59.0 °F 56% 30.00 in 10.0 mi WSW 8.1 mph - N/A   Clear
9:15 AM 77.9 °F - 59.0 °F 52% 30.00 in 10.0 mi WSW 6.9 mph - N/A   Clear
9:35 AM 79.9 °F - 59.4 °F 49% 29.99 in 10.0 mi WSW 5.8 mph - N/A   Clear
9:55 AM 81.5 °F 81.7 °F 59.0 °F 46% 29.99 in 10.0 mi WSW 4.6 mph - N/A   Clear
10:15 AM 84.4 °F 84.0 °F 58.6 °F 42% 29.99 in 10.0 mi West 5.8 mph - N/A   Clear
10:35 AM 85.1 °F 85.0 °F 60.1 °F 43% 30.00 in 10.0 mi WNW 5.8 mph - N/A   Clear
10:55 AM 86.5 °F 86.8 °F 61.3 °F 43% 30.00 in 10.0 mi NW 3.5 mph - N/A   Clear
11:15 AM 86.9 °F 86.1 °F 58.3 °F 38% 30.01 in 10.0 mi Calm Calm - N/A   Clear
11:35 AM 88.3 °F 87.1 °F 57.6 °F 35% 30.01 in 10.0 mi Calm Calm - N/A   Clear
11:55 AM 89.8 °F 89.1 °F 59.2 °F 36% 30.01 in 10.0 mi Calm Calm - N/A   Clear
12:15 PM 91.0 °F 89.2 °F 55.6 °F 30% 30.00 in 10.0 mi Calm Calm - N/A   Clear
12:35 PM 92.3 °F 90.7 °F 56.7 °F 30% 29.99 in 10.0 mi Calm Calm - N/A   Clear
12:55 PM 94.1 °F 92.2 °F 55.8 °F 27% 29.98 in 10.0 mi Calm Calm - N/A   Clear
1:15 PM 96.1 °F 94.5 °F 55.9 °F 26% 29.98 in 10.0 mi South 6.9 mph - N/A   Clear
1:35 PM 96.8 °F 94.4 °F 53.6 °F 23% 29.97 in 10.0 mi South 8.1 mph - N/A   Clear
1:55 PM 97.7 °F 95.9 °F 55.0 °F 24% 29.97 in 10.0 mi South 8.1 mph - N/A   Clear
2:15 PM 98.2 °F - 52.9 °F 22% 29.97 in 10.0 mi South 12.7 mph 19.6 mph N/A   Clear
2:35 PM 97.9 °F 95.8 °F 54.1 °F 23% 29.97 in 10.0 mi SW 11.5 mph 16.1 mph N/A   Clear
2:55 PM 98.4 °F 96.5 °F 54.5 °F 23% 29.97 in 10.0 mi SW 9.2 mph 18.4 mph N/A   Clear
3:15 PM 99.1 °F 97.5 °F 54.9 °F 23% 29.96 in 10.0 mi SE 11.5 mph 17.3 mph N/A   Clear
3:35 PM 99.7 °F 97.8 °F 54.1 °F 22% 29.95 in 10.0 mi South 11.5 mph - N/A   Clear
3:55 PM 99.9 °F 97.7 °F 53.8 °F 21% 29.95 in 10.0 mi SSE 10.4 mph 16.1 mph N/A   Clear
4:15 PM 98.8 °F - 52.9 °F 21% 29.95 in 10.0 mi South 8.1 mph - N/A   Clear
4:35 PM 99.3 °F - 52.3 °F 21% 29.95 in 10.0 mi South 6.9 mph - N/A   Clear
4:55 PM 99.7 °F - 52.0 °F 20% 29.95 in 10.0 mi SSE 6.9 mph 10.4 mph N/A   Clear
5:15 PM 99.5 °F - 51.4 °F 20% 29.95 in 10.0 mi South 6.9 mph - N/A   Clear
5:35 PM 99.5 °F - 50.9 °F 19% 29.94 in 10.0 mi South 6.9 mph 16.1 mph N/A   Clear
5:55 PM 99.5 °F - 52.7 °F 21% 29.94 in 10.0 mi South 8.1 mph - N/A   Clear
6:15 PM 98.8 °F - 51.8 °F 21% 29.94 in 10.0 mi South 8.1 mph - N/A   Clear
6:35 PM 98.4 °F 96.5 °F 55.0 °F 23% 29.94 in 10.0 mi SSE 9.2 mph - N/A   Clear
6:55 PM 96.8 °F 95.5 °F 57.0 °F 26% 29.94 in 10.0 mi SE 10.4 mph - N/A   Clear
7:15 PM 94.1 °F 92.5 °F 56.5 °F 28% 29.94 in 10.0 mi SE 8.1 mph - N/A   Clear
7:35 PM 92.5 °F 91.3 °F 57.6 °F 31% 29.94 in 10.0 mi SE 6.9 mph - N/A   Clear
7:55 PM 90.0 °F 89.1 °F 58.6 °F 35% 29.93 in 10.0 mi SSE 5.8 mph - N/A   Clear
8:15 PM 88.0 °F 87.1 °F 59.0 °F 37% 29.93 in 10.0 mi SSE 5.8 mph - N/A   Clear
8:35 PM 85.3 °F 85.2 °F 60.4 °F 43% 29.94 in 10.0 mi SSE 5.8 mph - N/A   Clear
8:55 PM 83.8 °F 84.1 °F 61.2 °F 46% 29.95 in 10.0 mi SSE 6.9 mph - N/A   Clear
9:15 PM 81.5 °F 82.4 °F 61.7 °F 51% 29.95 in 10.0 mi SE 6.9 mph - N/A   Clear
9:35 PM 81.3 °F 82.1 °F 60.8 °F 50% 29.95 in 10.0 mi SE 6.9 mph - N/A   Clear
9:55 PM 77.9 °F - 61.9 °F 58% 29.96 in 10.0 mi ESE 3.5 mph - N/A   Clear
10:15 PM 77.5 °F - 61.7 °F 58% 29.96 in 10.0 mi SSE 3.5 mph - N/A   Clear
10:35 PM 78.8 °F - 60.4 °F 53% 29.96 in 10.0 mi SSE 9.2 mph - N/A   Clear
10:55 PM 79.7 °F - 59.4 °F 50% 29.97 in 10.0 mi SSE 10.4 mph - N/A   Clear
11:15 PM 78.1 °F - 59.0 °F 52% 29.97 in 10.0 mi SSE 4.6 mph - N/A   Clear
11:35 PM 73.0 °F - 60.8 °F 65% 29.97 in 10.0 mi Calm Calm - N/A   Clear
11:55 PM 76.6 °F - 57.6 °F 52% 29.97 in 10.0 mi South 4.6 mph - N/A   Clear